Location: Hradec Kralove
(50.2170°N, 15.8330°E)
Time: 04:49:03
(UTC+01:00)

N. Korean satellite - Pass Details

Date: 09 December 2022
Orbit: 407 x 441 km, 97.3° (Epoch: 05 February)

Event Time Altitude Azimuth Distance (km) Brightness Sun altitude
Rises 04:15:55 0° 30° (NNE) 2,507 10.6 -32.0°
Reaches altitude 10° 04:18:47 10° 56° (NE) 1,614 9.8 -31.6°
Maximum altitude 04:20:42 14° 90° (E) 1,372 9.6 -31.3°
Drops below altitude 10° 04:22:34 10° 123° (ESE) 1,590 9.8 -31.0°
Sets 04:25:22 0° 150° (SSE) 2,440 10.5 -30.5°
